Orbital Elements at Epoch 2459000.5 (2020-May-31.0) TDB
Reference: JPL 12 (heliocentric ecliptic J2000)
Element | Value | Uncertainty (1-sigma) | Units |
e | .3263870458379174 | 5.8444e-08 | |
a | 2.439267497828517 | 9.9861e-09 | au |
q | 1.643122185203819 | 1.4683e-07 | au |
i | 21.60655514196132 | 7.2616e-06 | deg |
node | 48.67927120448018 | 1.3808e-05 | deg |
peri | 104.7521714642058 | 2.0518e-05 | deg |
M | 105.0515659578445 | 1.1122e-05 | deg |
tp | 2458594.442440307059 (2019-Apr-20.94244031) | 4.2218e-05 | TDB |
period | 1391.513968940916 3.81 | 8.5451e-06 2.34e-08 | d yr |
n | .2587110212583757 | 1.5887e-09 | deg/d |
Q | 3.235412810453215 | 1.3245e-08 | au |
|
| | Orbit Determination Parameters
Additional Information
|